Вернуться в каталог

STARLINK-31800

АктивенСвязьVLEO
NORAD 59643·PAYLOAD·🇺🇸 United States

Запущен May 3, 2024 с Cape Canaveral Space Force Station

Loading…

Ближайшие Пролёты (ближайшие 24 часа)

TLE

СвежийSource: CelesTrak SupGP

Эпоха: Sep 15, 2026, 02:31 UTC

1 59643C 24082N   26258.10534722  .00036699  00000+0  13293-2 0  2580
2 59643  43.0008 150.2842 0001392 276.5753 246.7522 15.27558158    12

Отслеживайте STARLINK-31800 в реальном времени с AllMySat

Download on the App Store